STARLINK-32777, 62525

Orbit data source: Space-Track

STARLINK-32777, 62525 is a payload satellite owned by SpaceX/Seattle (US) in LEO that was launched on Wed, 08 Jan 2025 UTC via an FALCON 9 launch vehicle from the Air Force Eastern Test Range (AFETR). Payloads include a variety of satellites, spacecraft, and rockets equipped with specific instruments for various scientific and technological missions. These include communications satellites like Starlink; space stations such as the ISS; scientific satellites like the Hubble; Earth observation satellites from companies like Planet Labs, Umbra, and HawkEye 360; GPS; miniature CubeSats for education and research; and military/defense satellites.

Loading next visibility...
STARLINK-32777 details
Identifier
62525, 2025-004Q
Orbit
LEO
Last TLE update15 hours ago
Origin
Flag of USSpaceX/Seattle (US)
ManufacturerSpaceX/Seattle
MissionOperational spacecraft
Bus & MotorSTARLINK V2M, Unknown motor
Mass730 kg wet, ~700 kg dry
Launch date (UTC)
2025-01-08 (1 month ago)
Launch vehicle
FALCON 9
Launch site
Air Force Eastern Test Range (AFETR)
Object type
Payload
Rocket body
Debris
Shape & HBRUnknown
Radar Cross SectionLarge (>1 m²)

Expand to show TLE details & history

TLE from 15 hours ago
0 STARLINK-32777
1 62525U 25004Q   25046.83725321 -.00000729  00000-0 -10189-4 0  9992
2 62525  43.0025 248.1564 0001737 264.7622  95.3036 15.40694169  7258
Epoch: 2025-02-15T20:05Z
Definitive object data (Epoch: 2025-02-15T20:05:38.677Z)
Latitude-0.00004°
Longitude160.66627°
Altitude443.943 km
Speed7.648 km/s
True Right ascension16h 32m 37s
True Declination0° 00' 00"
Sunlit
Object was in daylight at TLE epoch
Visualization TLE readout
Latitude-41.05642°
Longitude45.28748°
Altitude455.39 km
Speed7.64 km/s
Apparent Right ascension05h 32m 02s
Apparent Declination-53° 48' 58"
Sunlit
Object is in full shadow
Visualization observer readout
Local Sidereal Time13:57:55
Azimuth230.32° WSW
Elevation-51.912°
Doppler factor1
Orbital elements
Apogee altitude447.201 km
Perigee altitude444.83 km
Semi-major axis6,824.152 km
Eccentricity0.0001737
Inclination43.0025°
RAAN248.1564°
Arg. of periapsis264.7622°
True anomaly95.32342°
Mean anomaly95.3036°
Eccentric anomaly95.31351°
Mean motion3.85008 °/min
BSTAR-0.000010189
Orbital period93.5 mins
Loading maneuver chart data...
Loading historical data...
Loading historical data...
Loading historical data...
Loading historical data...
Loading historical data...
Loading historical data...
Loading historical data...

STARLINK-32777 Visibility forecast

Observer location: undefined°, undefined

Span
Click to sort rows by Start time (UTC) header in descending order
Start Az.
Max El. time (UTC)
Max El. Az.
Max El.
End time (UTC)
End Az.
6 mins2025-02-16 16:31:35.921Z215.588° SW2025-02-16 16:34:35.921Z142.519° SSE30.229°2025-02-16 16:37:35.921Z83.448° E
5 mins2025-02-16 18:10:35.921Z271.565° WNW2025-02-16 18:12:35.921Z13.107° NNE41.672°2025-02-16 18:15:35.921Z69.749° E
5 mins2025-02-16 19:48:35.921Z295.458° NW2025-02-16 19:50:35.921Z358.191° N37.912°2025-02-16 19:53:35.921Z80.47° E
5 mins2025-02-16 21:26:35.921Z282.229° WNW2025-02-16 21:28:35.921Z236.565° WSW42.1°2025-02-16 21:31:35.921Z120.945° SE
|